EW8682 Weather Reports


Display with metric or nautical units.
time (UTC)temp
F
wind
direction
speed
MPH
gust
MPH
rain 1hr
in
rain 24hr
in
rain mn
in
humidity
%
barometer
mb
20260508130043 52 304 0.0 1.0 0.00 0.00 0.00 92 1007.7
20260508124541 52 305 0.0 3.0 0.00 0.00 0.00 92 1007.3
20260508123040 51 304 0.0 2.0 0.00 0.00 0.00 92 1007.4
20260508121540 51 304 1.0 2.0 0.00 0.00 0.00 91 1007.3
20260508120044 50 304 1.0 2.0 0.00 0.00 0.00 91 1007.2
20260508114536 51 304 0.0 2.0 0.00 0.00 0.00 91 1007.1
20260508113035 51 304 1.0 3.0 0.00 0.00 0.00 91 1007.1
20260508111550 51 296 0.0 2.0 0.00 0.00 0.00 91 1007.1
20260508110034 51 296 0.0 3.0 0.00 0.00 0.00 90 1007.0
20260508104531 51 295 0.0 2.0 0.00 0.00 0.00 91 1007.0
20260508103034 51 294 0.0 2.0 0.00 0.00 0.00 90 1006.9
20260508101538 52 294 0.0 3.0 0.00 0.00 0.00 90 1007.0
20260508100029 52 293 0.0 2.0 0.00 0.00 0.00 90 1006.9
20260508094525 52 292 1.0 3.0 0.00 0.00 0.00 89 1007.1
20260508093022 53 237 1.0 3.0 0.00 0.00 0.00 89 1007.1
20260508091521 53 227 2.0 3.0 0.00 0.00 0.00 89 1007.1
20260508090019 53 224 0.0 2.0 0.00 0.00 0.00 89 1007.2
20260508084517 53 223 0.0 3.0 0.00 0.00 0.00 89 1007.4
20260508083013 54 220 1.0 2.0 0.00 0.00 0.00 88 1007.5
20260508081512 54 220 0.0 1.0 0.00 0.00 0.00 88 1007.6
20260508080013 54 220 1.0 2.0 0.00 0.00 0.00 87 1007.8
20260508074508 54 213 1.0 3.0 0.00 0.00 0.00 87 1007.7
20260508073007 55 214 1.0 2.0 0.00 0.00 0.00 87 1007.8
20260508071503 55 209 0.0 2.0 0.00 0.00 0.00 86 1007.7
20260508070001 56 208 1.0 3.0 0.00 0.00 0.00 85 1007.7
20260508064615 56 205 2.0 3.0 0.00 0.00 0.00 85 1007.7
20260508063101 56 204 0.0 3.0 0.00 0.00 0.00 84 1007.6
20260508061600 57 203 1.0 2.0 0.00 0.00 0.00 83 1007.4
20260508060059 57 204 0.0 2.0 0.00 0.00 0.00 81 1007.5
20260508054604 58 204 0.0 3.0 0.00 0.00 0.00 81 1007.4
20260508053057 59 207 0.0 2.0 0.00 0.00 0.00 80 1007.4
20260508051601 59 206 1.0 2.0 0.00 0.00 0.00 78 1007.3
20260508050058 60 202 0.0 2.0 0.00 0.00 0.00 77 1007.1
20260508044559 61 201 1.0 2.0 0.00 0.00 0.00 76 1007.0
20260508043101 62 202 0.0 2.0 0.00 0.00 0.00 75 1007.0
20260508041558 63 201 0.0 2.0 0.00 0.00 0.00 73 1006.6
20260508040055 64 200 1.0 2.0 0.00 0.00 0.00 70 1006.5
20260508034655 66 200 0.0 0.0 0.00 0.00 0.00 67 1006.3
20260508033054 67 200 0.0 2.0 0.00 0.00 0.00 64 1006.2
20260508031551 68 200 1.0 3.0 0.00 0.00 0.00 63 1006.1
20260508030054 69 200 0.0 2.0 0.00 0.00 0.00 61 1005.9
20260508024551 70 199 1.0 3.0 0.00 0.00 0.00 59 1005.6
20260508023051 72 201 1.0 3.0 0.00 0.00 0.00 57 1005.4
20260508021552 74 200 1.0 3.0 0.00 0.00 0.00 55 1005.2
20260508020049 75 211 1.0 4.0 0.00 0.00 0.00 52 1005.1
20260508014554 76 205 1.0 4.0 0.00 0.00 0.00 52 1005.1
20260508013048 77 199 3.0 5.0 0.00 0.00 0.00 50 1005.1
20260508011548 78 194 2.0 5.0 0.00 0.00 0.00 49 1005.0
20260508010046 79 210 2.0 5.0 0.00 0.00 0.00 47 1005.0
20260508004546 79 190 2.0 6.0 0.00 0.00 0.00 47 1005.0
20260508003058 80 184 3.0 7.0 0.00 0.00 0.00 46 1005.0
20260508001545 80 227 2.0 6.0 0.00 0.00 0.00 46 1005.0
20260508000046 81 174 2.0 7.0 0.00 0.00 0.00 44 1005.0
20260507234543 81 175 3.0 6.0 0.00 0.00 0.00 44 1005.2
20260507233042 82 196 2.0 8.0 0.00 0.00 0.00 43 1005.1
20260507231542 82 167 3.0 7.0 0.00 0.00 0.00 43 1005.1
20260507230042 82 176 2.0 7.0 0.00 0.00 0.00 44 1005.2
20260507224557 82 179 4.0 7.0 0.00 0.00 0.00 44 1005.2
20260507223036 82 195 3.0 8.0 0.00 0.00 0.00 43 1005.4
20260507221535 82 217 3.0 9.0 0.00 0.00 0.00 43 1005.5
20260507220033 82 222 4.0 9.0 0.00 0.00 0.00 42 1005.6
20260507214531 82 186 3.0 9.0 0.00 0.00 0.00 44 1005.8
20260507213028 82 186 4.0 8.0 0.00 0.00 0.00 44 1006.0
20260507211527 82 188 3.0 9.0 0.00 0.00 0.00 43 1006.1
20260507210030 82 227 3.0 6.0 0.00 0.00 0.00 42 1006.2
20260507204523 82 186 1.0 6.0 0.00 0.00 0.00 42 1006.4
20260507203019 82 193 2.0 8.0 0.00 0.00 0.00 41 1006.5
20260507201520 81 184 2.0 7.0 0.00 0.00 0.00 41 1006.7
20260507200014 81 194 2.0 6.0 0.00 0.00 0.00 43 1006.8
20260507194512 80 202 2.0 6.0 0.00 0.00 0.00 43 1007.1
20260507193006 79 196 2.0 6.0 0.00 0.00 0.00 44 1007.2
20260507191503 79 224 3.0 7.0 0.00 0.00 0.00 44 1007.4
20260507190100 78 180 2.0 6.0 0.00 0.00 0.00 46 1007.5
20260507184556 77 223 3.0 6.0 0.00 0.00 0.00 46 1007.6
20260507183052 76 197 2.0 6.0 0.00 0.00 0.00 47 1007.8
20260507181549 75 176 0.0 5.0 0.00 0.00 0.00 49 1007.8
20260507180047 74 191 2.0 5.0 0.00 0.00 0.00 50 1007.9
20260507174541 72 207 1.0 5.0 0.00 0.00 0.00 52 1007.9
20260507173036 71 202 3.0 6.0 0.00 0.00 0.00 55 1008.0
20260507171530 70 207 1.0 4.0 0.00 0.00 0.00 57 1008.1
20260507170028 69 198 1.0 5.0 0.00 0.00 0.00 58 1008.1
20260507164525 68 195 2.0 4.0 0.00 0.00 0.00 59 1008.1
20260507163025 67 198 0.0 4.0 0.00 0.00 0.00 61 1008.3
20260507161519 66 209 1.0 4.0 0.00 0.00 0.00 61 1008.3
20260507160021 66 187 1.0 5.0 0.00 0.00 0.00 61 1008.3
20260507154513 64 191 0.0 5.0 0.00 0.00 0.00 65 1008.3
20260507153009 62 105 0.0 0.0 0.00 0.00 0.00 66 1008.4
20260507151505 61 101 0.0 0.0 0.00 0.00 0.00 71 1008.4
20260507150002 59 93 0.0 0.0 0.00 0.00 0.00 75 1008.4
20260507144601 57 50 0.0 0.0 0.00 0.00 0.00 82 1008.3
20260507143103 54 47 0.0 0.0 0.00 0.00 0.00 85 1008.4
20260507141558 53 47 0.0 0.0 0.00 0.00 0.00 85 1008.3
20260507140108 52 47 0.0 0.0 0.00 0.00 0.00 84 1008.2
20260507134554 52 47 0.0 0.0 0.00 0.00 0.00 84 1008.1
20260507133052 52 47 0.0 0.0 0.00 0.00 0.00 83 1007.9
20260507131550 53 47 0.0 0.0 0.00 0.00 0.00 81 1008.0